Location: Unspecified
(0.0000°N, 0.0000°E)
Time: 15:41:04
(UTC+00:00)

Cubesat XI-IV - Visible Passes

Search period start: 31 May 2023 00:00
Search period end: 10 June 2023 00:00
Orbit: 811 x 824 km, 98.7° (Epoch: 31 May)

Date Brightness Start Highest point End Pass type
(mag) Time Alt. Az. Time Alt. Az. Time Alt. Az.
31 May ? 04:48:48 10° E 04:50:46 12° ESE 04:52:44 10° SE visible
31 May ? 19:06:53 10° SW 19:09:42 14° WSW 19:12:30 10° WNW visible
01 Jun ? 18:43:53 10° SSW 18:48:17 26° WSW 18:52:41 10° NW visible
02 Jun ? 18:21:44 10° S 18:26:52 46° WSW 18:31:59 10° NNW visible
03 Jun ? 05:21:30 10° NE 05:26:12 33° ESE 05:30:55 10° SSE visible
04 Jun ? 05:01:14 10° ENE 05:04:47 18° ESE 05:08:20 10° SE visible
05 Jun ? 18:58:47 10° SW 19:02:18 18° WSW 19:05:49 10° WNW visible
06 Jun ? 18:36:11 10° SSW 18:40:54 32° WSW 18:45:36 10° NW visible
07 Jun ? 18:14:12 10° S 18:19:28 57° WSW 18:24:43 10° NNW visible
08 Jun ? 05:14:24 10° NE 05:18:48 27° ESE 05:23:12 10° SSE visible
09 Jun ? 04:54:30 10° ENE 04:57:23 15° ESE 05:00:15 10° SE visible
09 Jun ? 19:14:29 10° WSW 19:16:18 12° WSW 19:18:09 10° W visible
